Location: Ay?beleni
(36.6500°N, 30.3000°E)
Time: 10:27:06
(UTC+00:00)

Nadezhda 1 Rocket - Pass Details

Date: 12 August 2020
Orbit: 940 x 1006 km, 83.0° (Epoch: 22 September)

Event Time Altitude Azimuth Distance (km) Brightness Sun altitude
Rises 02:21:40 0° 158° (SSE) 3,718 7.0 -10.4°
Reaches altitude 10° 02:24:26 10° 149° (SSE) 2,773 6.4 -10.0°
Maximum altitude 02:30:01 33° 87° (E) 1,624 5.9 -9.0°
Drops below altitude 10° 02:35:35 10° 27° (NNE) 2,775 7.2 -8.0°
Sets 02:38:21 0° 18° (NNE) 3,722 7.7 -7.4°
